When you browse on this site, cookies collect data to enhance your experience and personalize the content and advertising you see.
Visit our Privacy Policy to learn more. By continuing to use the site, you agree to this use of cookies and data.
  • In Deutschland
  • Länderverzeichnis
  • Für 7 Tage
  • Wassertemperatur
  • Satellitenkarten
  • Wetterkarte
  • Widgets
  • user-avatar
    Anmelden

    Stündliche Wetter Kukawki

    Heute, 23 Juli, Dienstag

    Zeit Temperatur Niederschläge Wind Luftdruck Luftfeuchtigkeit
    00:00 +15°C° 0 mm 2 m/S 749 mmHg 84%
    01:00 +15°C° 0 mm 2 m/S 749 mmHg 83%
    02:00 +14°C° 0 mm 2 m/S 748 mmHg 83%
    03:00 +14°C° 0 mm 2 m/S 748 mmHg 82%
    04:00 +13°C° 0 mm 2 m/S 748 mmHg 82%
    05:00 +13°C° 0 mm 1 m/S 748 mmHg 82%
    06:00 +15°C° 0 mm 2 m/S 748 mmHg 79%
    07:00 +16°C° 0 mm 2 m/S 748 mmHg 76%
    08:00 +17°C° 0 mm 3 m/S 748 mmHg 73%
    09:00 +19°C° 0 mm 3 m/S 748 mmHg 69%
    10:00 +20°C° 0 mm 4 m/S 748 mmHg 64%
    11:00 +21°C° 0 mm 4 m/S 748 mmHg 60%
    12:00 +21°C° 0 mm 5 m/S 748 mmHg 59%
    13:00 +22°C° 0 mm 5 m/S 748 mmHg 57%
    14:00 +22°C° 0 mm 6 m/S 747 mmHg 56%
    15:00 +22°C° 0 mm 5 m/S 747 mmHg 59%
    16:00 +22°C° 0 mm 5 m/S 747 mmHg 62%
    17:00 +22°C° 0 mm 5 m/S 747 mmHg 64%
    18:00 +21°C° 0 mm 4 m/S 747 mmHg 71%
    19:00 +19°C° 0 mm 4 m/S 747 mmHg 77%
    20:00 +18°C° 0 mm 3 m/S 747 mmHg 83%
    21:00 +17°C° 0 mm 3 m/S 747 mmHg 87%
    22:00 +16°C° 0 mm 3 m/S 747 mmHg 91%
    23:00 +14°C° 0 mm 3 m/S 747 mmHg 95%

    Morgen, 24 Juli, Mittwoch

    Zeit Temperatur Niederschläge Wind Luftdruck Luftfeuchtigkeit
    00:00 +14°C° 0 mm 3 m/S 747 mmHg 96%
    01:00 +14°C° 0 mm 3 m/S 747 mmHg 96%
    02:00 +14°C° 0 mm 2 m/S 747 mmHg 96%
    03:00 +14°C° 0 mm 2 m/S 747 mmHg 96%
    04:00 +14°C° 0 mm 2 m/S 747 mmHg 96%
    05:00 +13°C° 0 mm 2 m/S 747 mmHg 95%
    06:00 +14°C° 0 mm 3 m/S 747 mmHg 90%
    07:00 +16°C° 0 mm 3 m/S 747 mmHg 84%
    08:00 +18°C° 0 mm 3 m/S 747 mmHg 78%
    09:00 +20°C° 0 mm 3 m/S 747 mmHg 72%
    10:00 +21°C° 0 mm 3 m/S 748 mmHg 67%
    11:00 +24°C° 0 mm 3 m/S 748 mmHg 61%
    12:00 +24°C° 0 mm 3 m/S 748 mmHg 60%
    13:00 +25°C° 0 mm 4 m/S 747 mmHg 59%
    14:00 +26°C° 0 mm 4 m/S 747 mmHg 59%
    15:00 +25°C° 0.1 mm 4 m/S 747 mmHg 61%
    16:00 +25°C° 0.1 mm 4 m/S 747 mmHg 63%
    17:00 +25°C° 0.1 mm 4 m/S 747 mmHg 65%
    18:00 +24°C° 0.1 mm 3 m/S 747 mmHg 70%
    19:00 +23°C° 0.1 mm 2 m/S 747 mmHg 76%
    20:00 +20°C° 0.1 mm 2 m/S 747 mmHg 81%
    21:00 +19°C° 0 mm 2 m/S 747 mmHg 84%
    22:00 +18°C° 0 mm 2 m/S 748 mmHg 87%
    23:00 +18°C° 0 mm 1 m/S 748 mmHg 91%

    übermorgen, 25 Juli, Donnerstag

    Zeit Temperatur Niederschläge Wind Luftdruck Luftfeuchtigkeit
    00:00 +17°C° 0 mm 2 m/S 748 mmHg 91%
    01:00 +17°C° 0 mm 2 m/S 748 mmHg 92%
    02:00 +16°C° 0 mm 2 m/S 748 mmHg 93%
    03:00 +16°C° 0 mm 2 m/S 748 mmHg 94%
    04:00 +16°C° 0 mm 2 m/S 748 mmHg 94%
    05:00 +16°C° 0 mm 2 m/S 748 mmHg 95%
    06:00 +17°C° 0 mm 2 m/S 748 mmHg 89%
    07:00 +19°C° 0 mm 2 m/S 748 mmHg 84%
    08:00 +21°C° 0 mm 2 m/S 748 mmHg 79%
    09:00 +23°C° 0 mm 2 m/S 748 mmHg 72%
    10:00 +24°C° 0 mm 2 m/S 748 mmHg 65%
    11:00 +26°C° 0 mm 3 m/S 748 mmHg 59%
    12:00 +26°C° 0 mm 3 m/S 748 mmHg 56%
    13:00 +27°C° 0 mm 3 m/S 747 mmHg 53%
    14:00 +27°C° 0 mm 2 m/S 747 mmHg 50%
    15:00 +27°C° 0.2 mm 3 m/S 747 mmHg 54%
    16:00 +26°C° 0.2 mm 4 m/S 747 mmHg 59%
    17:00 +26°C° 0.2 mm 5 m/S 746 mmHg 63%
    18:00 +23°C° 0.1 mm 4 m/S 746 mmHg 70%
    19:00 +22°C° 0.1 mm 3 m/S 746 mmHg 77%
    20:00 +20°C° 0.1 mm 3 m/S 746 mmHg 83%
    21:00 +19°C° 0 mm 3 m/S 746 mmHg 86%
    22:00 +18°C° 0 mm 3 m/S 746 mmHg 88%
    23:00 +17°C° 0 mm 3 m/S 746 mmHg 90%

    26 Juli, Freitag

    Zeit Temperatur Niederschläge Wind Luftdruck Luftfeuchtigkeit
    00:00 +16°C° 0 mm 3 m/S 746 mmHg 92%
    01:00 +16°C° 0 mm 3 m/S 746 mmHg 94%
    02:00 +16°C° 0 mm 3 m/S 746 mmHg 96%
    03:00 +14°C° 0 mm 3 m/S 746 mmHg 96%
    04:00 +14°C° 0 mm 3 m/S 746 mmHg 96%
    05:00 +14°C° 0 mm 3 m/S 746 mmHg 96%
    06:00 +16°C° 0 mm 3 m/S 746 mmHg 92%
    07:00 +17°C° 0 mm 3 m/S 746 mmHg 88%
    08:00 +18°C° 0 mm 4 m/S 746 mmHg 84%
    09:00 +18°C° 0.1 mm 4 m/S 746 mmHg 82%
    10:00 +19°C° 0.1 mm 5 m/S 746 mmHg 81%
    11:00 +19°C° 0.1 mm 5 m/S 746 mmHg 79%
    12:00 +20°C° 0.1 mm 5 m/S 746 mmHg 74%
    13:00 +21°C° 0.1 mm 5 m/S 746 mmHg 69%
    14:00 +22°C° 0.1 mm 5 m/S 746 mmHg 64%
    15:00 +22°C° 0.1 mm 5 m/S 746 mmHg 66%
    16:00 +22°C° 0.1 mm 5 m/S 745 mmHg 68%
    17:00 +22°C° 0.1 mm 5 m/S 745 mmHg 70%
    18:00 +21°C° 0.1 mm 5 m/S 745 mmHg 76%
    19:00 +20°C° 0.1 mm 4 m/S 745 mmHg 82%
    20:00 +19°C° 0.1 mm 4 m/S 745 mmHg 87%
    21:00 +19°C° 0.1 mm 3 m/S 746 mmHg 89%
    22:00 +18°C° 0.1 mm 3 m/S 746 mmHg 91%
    23:00 +18°C° 0.1 mm 3 m/S 746 mmHg 92%

    27 Juli, Samstag

    Zeit Temperatur Niederschläge Wind Luftdruck Luftfeuchtigkeit
    00:00 +18°C° 0.1 mm 3 m/S 746 mmHg 94%
    01:00 +17°C° 0.1 mm 3 m/S 746 mmHg 95%
    02:00 +17°C° 0.1 mm 3 m/S 746 mmHg 97%
    03:00 +17°C° 0 mm 3 m/S 746 mmHg 97%
    04:00 +17°C° 0 mm 3 m/S 746 mmHg 97%
    05:00 +17°C° 0 mm 3 m/S 746 mmHg 97%
    06:00 +18°C° 0 mm 3 m/S 746 mmHg 93%
    07:00 +19°C° 0 mm 4 m/S 746 mmHg 89%
    08:00 +20°C° 0 mm 4 m/S 746 mmHg 85%
    09:00 +22°C° 0 mm 4 m/S 746 mmHg 77%
    10:00 +25°C° 0 mm 4 m/S 746 mmHg 69%
    11:00 +27°C° 0 mm 5 m/S 747 mmHg 61%
    12:00 +27°C° 0 mm 5 m/S 746 mmHg 57%
    13:00 +28°C° 0 mm 5 m/S 746 mmHg 54%
    14:00 +29°C° 0 mm 5 m/S 746 mmHg 51%
    15:00 +29°C° 0 mm 5 m/S 746 mmHg 51%
    16:00 +29°C° 0 mm 5 m/S 746 mmHg 52%
    17:00 +29°C° 0 mm 4 m/S 745 mmHg 53%
    18:00 +27°C° 0 mm 4 m/S 745 mmHg 60%
    19:00 +26°C° 0 mm 4 m/S 745 mmHg 66%
    20:00 +23°C° 0 mm 4 m/S 745 mmHg 73%
    21:00 +22°C° 0 mm 3 m/S 746 mmHg 77%
    22:00 +21°C° 0 mm 3 m/S 746 mmHg 82%
    23:00 +20°C° 0 mm 3 m/S 746 mmHg 87%

    28 Juli, Sonntag

    Zeit Temperatur Niederschläge Wind Luftdruck Luftfeuchtigkeit
    00:00 +20°C° 0 mm 2 m/S 746 mmHg 89%
    01:00 +19°C° 0 mm 2 m/S 746 mmHg 91%
    02:00 +19°C° 0 mm 2 m/S 746 mmHg 93%
    03:00 +18°C° 0 mm 2 m/S 746 mmHg 94%
    04:00 +18°C° 0 mm 2 m/S 746 mmHg 94%
    05:00 +18°C° 0 mm 2 m/S 746 mmHg 94%
    06:00 +20°C° 0 mm 2 m/S 746 mmHg 88%
    07:00 +21°C° 0 mm 3 m/S 746 mmHg 81%
    08:00 +24°C° 0 mm 3 m/S 746 mmHg 74%
    09:00 +26°C° 0 mm 3 m/S 746 mmHg 68%
    10:00 +27°C° 0 mm 3 m/S 746 mmHg 62%
    11:00 +29°C° 0 mm 4 m/S 746 mmHg 56%
    12:00 +29°C° 0 mm 4 m/S 746 mmHg 54%
    13:00 +29°C° 0 mm 4 m/S 746 mmHg 53%
    14:00 +30°C° 0 mm 4 m/S 746 mmHg 51%
    15:00 +30°C° 0 mm 4 m/S 746 mmHg 51%
    16:00 +30°C° 0 mm 4 m/S 746 mmHg 50%
    17:00 +30°C° 0 mm 3 m/S 746 mmHg 50%
    18:00 +28°C° 0 mm 3 m/S 746 mmHg 57%
    19:00 +27°C° 0 mm 3 m/S 745 mmHg 64%
    20:00 +25°C° 0 mm 3 m/S 745 mmHg 70%
    21:00 +24°C° 0 mm 3 m/S 746 mmHg 75%
    22:00 +22°C° 0 mm 3 m/S 746 mmHg 79%
    23:00 +21°C° 0 mm 3 m/S 746 mmHg 83%
    Mehr zeigen